Regional Weather Roundup
Issued by NWS

Home | Current Version | Previous Version | Graphics & Text | Print | Product List | Glossary On
Versions: 1 2 3 4 5 6 7 8 9 10 11 12 13 14 15 16 17 18 19 20 21 22 23 24 25 26 27 28 29 30 31 32 33 34 35 36 37 38 39 40 41 42 43 44 45 46 47 48 49 50
000
ASUS43 KMPX 011710
RWRMN
WEATHER ROUNDUP FOR MINNESOTA
NATIONAL WEATHER SERVICE TWIN CITIES/CHANHASSEN MN
1200 PM CDT WED JUL 01 2015


NOTE: "FAIR" INDICATES FEW OR NO CLOUDS BELOW 12,000 FEET WITH NO
SIGNIFICANT WEATHER AND/OR OBSTRUCTIONS TO VISIBILITY. N/A MEANS
CURRENT SKY AND/OR WEATHER CONDITIONS ARE NOT AVAILABLE.

MNZ060>063-068>070-011800-
   Twin Cities Metro

CITY           SKY/WX    TMP DP  RH WIND       PRES   REMARKS
TWIN CITIES    CLOUDY    61  49  64 SE5       30.02S
ST PAUL        CLOUDY    60  49  66 E3        30.03S
CRYSTAL        CLOUDY    65  45  48 SE5       30.01S
BLAINE         PTSUNNY  N/A N/A N/A SE7       30.02S
LAKEVILLE      CLOUDY    61  54  77 E5        30.02S
EDEN PRAIRIE   CLOUDY    63  51  65 E6        30.01S
SOUTH ST PAUL  CLOUDY    60  50  69 CALM      30.02S
LAKE ELMO      FAIR      63  50  63 SE5       30.04S
$$
MNZ001>005-007-008-013>017-022>024-027-028-011800-
   Northwest Minnesota

CITY           SKY/WX    TMP DP  RH WIND       PRES   REMARKS
BEMIDJI        MOSUNNY   71  60  69 SW6       29.98R
HALLOCK        SUNNY     75  57  53 SW2       29.95S
ROSEAU         SUNNY     75  61  60 W3        29.96S
WARROAD        MOSUNNY   73  59  60 CALM      29.97R
THIEF RVR FALL MOSUNNY   73  57  56 W6        29.97R
CROOKSTON      SUNNY     73  61  64 CALM      29.96S
FOSSTON        MOSUNNY   73  61  64 CALM      29.98S
DETROIT LAKES  MOSUNNY   72  59  64 S7        30.00S
MOORHEAD       SUNNY     72  61  68 S9        29.98R
PARK RAPIDS    PTSUNNY   73  61  65 W5        29.99R
MAHNOMEN       CLOUDY    72  61  69 SW7       29.98S
$$
MNZ006-009>011-018-025>026-011800-
   North Central Minnesota

CITY           SKY/WX    TMP DP  RH WIND       PRES   REMARKS
BAUDETTE       SUNNY     75  54  47 CALM      29.96S
FLAG ISLAND    MOSUNNY   70  61  73 S8        29.95S
INTL FALLS     SUNNY     73  50  44 VRB5      29.97F
WASKISH        SUNNY     73  63  68 W5        29.97S
BIG FORK       SUNNY    N/A N/A N/A S5        29.98F
LONGVILLE      PTSUNNY   70  55  60 SW6       30.00R
GRAND RAPIDS   CLOUDY    68  55  64 S3        30.01S
CRANE LAKE     SUNNY     68  52  56 S1        30.01S
ORR            MOSUNNY   70  52  52 CALM      29.97S
COOK           SUNNY     68  55  64 CALM      30.00S
WALKER         PTSUNNY   72  60  66 SW7       29.98S
$$
MNZ012-019>021-037-011800-
   Northeast Minnesota

CITY           SKY/WX    TMP DP  RH WIND       PRES   REMARKS
DULUTH         MOSUNNY   68  51  54 SW8       30.02S
ELY            PTSUNNY   70  50  49 S3        30.00F
HIBBING        MOSUNNY   68  53  58 CALM      30.01S
DULUTH HARBOR  SUNNY     61  55  82 NE5       30.03S
TWO HARBORS    MOSUNNY   70  55  60 S8        30.01S
SILVER BAY     SUNNY     66  50  55 SE8       30.01S
GRAND MARAIS     N/A     51  46  83 SW5       30.03R
G MARAIS ARPRT SUNNY     64  45  48 S7        30.04R
$$
MNZ029>031-032-039>041-046>048-054>057-064-011800-
   West Central Minnesota

CITY           SKY/WX    TMP DP  RH WIND       PRES   REMARKS
FERGUS FALLS   SUNNY     70  59  68 S10       29.99R
WHEATON        PTSUNNY   66  57  72 S13       29.99S
MORRIS         PTSUNNY   70  57  64 S10       29.98S
ALEXANDRIA     MOSUNNY   67  55  65 SE12      30.02R
ELBOW LAKE     FAIR      67  57  70 SE10      30.00R
WADENA         MOSUNNY   68  55  64 S8        30.00S
GLENWOOD       PTSUNNY   66  54  63 SE7       30.02R
APPLETON       PTSUNNY   68  55  64 S8        29.98R
BENSON         PTSUNNY   70  55  60 S7        29.99S
ORTONVILLE     PTSUNNY   64  57  77 SE7       29.97S
MADISON        PTSUNNY   66  57  72 SE8       29.98R
WILLMAR        FAIR      66  55  68 E9        30.01S
$$
MNZ033>034-036-042>043-049>051-058-059-011800-
   Central Minnesota

CITY           SKY/WX    TMP DP  RH WIND       PRES   REMARKS
ST CLOUD       PTSUNNY   67  47  48 SE6       30.02R
SAUK CENTRE    FAIR      66  53  61 SE7       30.02S
PAYNESVILLE    CLOUDY    62  51  68 E6        30.02S
AITKIN         MOSUNNY   72  52  49 S6        30.00S
PINE RIVER     PTSUNNY   72  55  56 S3        30.03S HAZE
BRAINERD       CLOUDY    69  48  47 S8        30.02R
STAPLES        CLOUDY    70  50  49 S8        30.01S
LONG PRAIRIE   FAIR      64  52  63 S7        30.03R
LITTLE FALLS   PTSUNNY   70  45  40 S8        30.02S
LITCHFIELD     CLOUDY    64  57  77 E7        30.02S
BUFFALO        CLOUDY    62  50  65 CALM      30.03S
MAPLE LAKE     CLOUDY    64  55  72 E3        30.03S
$$
MNZ037-044-045-052-053-011800-
   East Central Minnesota

CITY           SKY/WX    TMP DP  RH WIND       PRES   REMARKS
PRINCETON      MOSUNNY   72  46  40 SE7       30.02S
MORA           SUNNY     68  46  45 S7        30.04R
CAMBRIDGE      MOSUNNY   70  52  52 CALM      30.00S
RUSH CITY      SUNNY     67  48  50 SE5       30.03R
MOOSE LAKE     SUNNY     68  54  60 CALM      30.01R
HINCKLEY       FAIR      68  48  49 SW3       30.02S
CLOQUET        SUNNY     66  48  52 S5        30.02S
MCGREGOR       SUNNY     68  52  56 S6        30.02S
$$
MNZ071>073-080-081-089-090-097-098-011800-
   Southwest Minnesota

CITY           SKY/WX    TMP DP  RH WIND       PRES   REMARKS
MONTEVIDEO     PTSUNNY   66  57  72 S9        29.99S
GRANITE FALLS  PTSUNNY   65  55  70 E6        30.00S
CANBY          CLOUDY    65  60  82 SE10      29.98F
MARSHALL       CLOUDY    64  55  72 SE9       29.97
REDWOOD FALLS  CLOUDY    62  57  83 E6        29.99S
OLIVIA         CLOUDY    59  52  77 E5        29.99S
PIPESTONE      PTSUNNY   66  57  72 SE10      29.97R
WINDOM         CLOUDY    64  57  77 E8        29.99S
WORTHINGTON    CLOUDY    63  55  77 E13       29.98S
JACKSON        LGT RAIN  64  59  82 E9        30.00R
TRACY          CLOUDY    65  60  86 SE8       29.99S
SLAYTON        CLOUDY    66  59  79 E12       29.99S
$$
MNZ065>067-074>077-082>085-091>093-011800-
   South Central Minnesota

CITY           SKY/WX    TMP DP  RH WIND       PRES   REMARKS
MANKATO        CLOUDY    63  54  72 E5        30.01R
NEW ULM        CLOUDY    61  55  82 E6        30.00S
ST JAMES       DRIZZLE   64  61  88 E6        30.01R
FAIRMONT       CLOUDY    64  54  68 E8        29.99R
GLENCOE        CLOUDY    63  56  78 E5        30.01S
FARIBAULT      LGT RAIN  63  54  72 NE6       30.02S
OWATONNA       CLOUDY    63  52  67 E7        30.01S
WASECA         CLOUDY    63  54  72 E6        30.03R
ALBERT LEA     CLOUDY    64  54  68 E8        30.00S
$$
MNZ078>079-086>088-094>096-011800-
   Southeast Minnesota

CITY           SKY/WX    TMP DP  RH WIND       PRES   REMARKS
ROCHESTER      CLOUDY    63  52  67 E6        30.02S
RED WING       CLOUDY    63  52  67 E3        30.01S
STANTON        CLOUDY    63  50  63 E3        30.01R
DODGE CENTER   LGT RAIN  63  54  72 CALM      30.02R
WINONA         CLOUDY    63  50  63 CALM      30.02S
AUSTIN         CLOUDY    64  52  63 E5        30.00S
PRESTON        PTSUNNY   62  49  62 E7        30.01F
$$
ABBREVIATIONS USED IN REMARKS
   TC - TEMPERATURES IN CELSIUS
  WCI - WIND CHILL INDEX
   HX - HEAT INDEX
  VSB - VISIBILITY
$$


USA.gov is the U.S. government's official web portal to all federal, state and local government web resources and services.